Regional Weather Roundup
Issued by NWS

Home | Current Version | Previous Version | Text Only | Print | Product List | Glossary Off
Versions: 1 2 3 4 5 6 7 8 9 10 11 12 13 14 15 16 17 18 19 20 21 22 23 24 25 26 27 28 29 30 31 32 33 34 35 36 37 38 39 40 41 42 43 44 45 46 47 48 49 50

000
ASUS43 KMPX 221001
RWRMN
WEATHER ROUNDUP FOR MINNESOTA
NATIONAL WEATHER SERVICE TWIN CITIES/CHANHASSEN MN
500 AM CDT MON SEP 22 2014


NOTE: "FAIR" INDICATES FEW OR NO CLOUDS BELOW 12,000 FEET WITH NO
SIGNIFICANT WEATHER AND/OR OBSTRUCTIONS TO VISIBILITY. N/A MEANS
CURRENT SKY AND/OR WEATHER CONDITIONS ARE NOT AVAILABLE.

MNZ060>063-068>070-221100-
   Twin Cities Metro

CITY           SKY/WX    TMP DP  RH WIND       PRES   REMARKS
TWIN CITIES    CLEAR     49  47  93 CALM      30.23R
ST PAUL        CLEAR     47  47 100 CALM      30.24R
CRYSTAL        CLEAR     46  43  89 CALM      30.22S
BLAINE         CLEAR     46  46 100 CALM      30.23R FOG
LAKEVILLE      CLEAR     43  43 100 CALM      30.23S FOG
EDEN PRAIRIE   CLEAR     48  47  96 SW3       30.22S
SOUTH ST PAUL  CLEAR     48  47  95 CALM      30.23R
LAKE ELMO      FOG       39  39 100 CALM      30.24R VSB<1/4
$$
MNZ001>005-007-008-013>017-022>024-027-028-221100-
   Northwest Minnesota

CITY           SKY/WX    TMP DP  RH WIND       PRES   REMARKS
BEMIDJI        CLEAR     43  43  98 SW3       30.18S
HALLOCK        CLEAR     46  45  93 S8        30.12S
ROSEAU         CLEAR     50  45  81 SW9       30.12S
WARROAD        CLEAR     48  45  87 SW8       30.13S
THIEF RVR FALL CLEAR     48  45  87 S7        30.16S
CROOKSTON      CLEAR     45  45 100 S6        30.17S
FOSSTON        CLEAR     43  43 100 S6        30.19R
DETROIT LAKES  CLEAR     48  46  93 S3        30.20F
MOORHEAD       CLEAR     48  48 100 S6        30.20S
PARK RAPIDS    CLEAR     43  42  97 SW5       30.20S
MAHNOMEN       FAIR      46  45  96 S8        30.18S
$$
MNZ006-009>011-018-025>026-221100-
   North Central Minnesota

CITY           SKY/WX    TMP DP  RH WIND       PRES   REMARKS
BAUDETTE       CLEAR     47  45  93 SW5       30.13S
FLAG ISLAND    CLEAR     52  48  87 SW15      30.08S
INTL FALLS     CLEAR     41  40  96 CALM      30.14S
WASKISH        CLEAR     43  43 100 CALM      30.16S FOG
BIG FORK       FOG       39  39 100 CALM      30.18S VSB 1/2
LONGVILLE      CLEAR     39  39 100 CALM      30.19S
GRAND RAPIDS   CLEAR     46  43  87 CALM      30.18F
CRANE LAKE     CLEAR     37  37 100 CALM      30.16S
ORR            CLEAR     45  43  93 CALM      30.14S
COOK           FOG       39  39 100 CALM      30.17S VSB 1/2
WALKER         FAIR      43  42  97 CALM      30.19S
$$
MNZ012-019>021-037-221100-
   Northeast Minnesota

CITY           SKY/WX    TMP DP  RH WIND       PRES   REMARKS
DULUTH         CLEAR     44  42  93 NW6       30.18R
ELY            FOG       46  45  93 W6        30.16S VSB 3/4
HIBBING        FOG       36  35  96 CALM      30.18S VSB 1/4
EVELETH        FOG       43  41  93 SW3       30.18S VSB 1/4
DULUTH HARBOR  CLEAR     46  45  93 SW8       30.19S
TWO HARBORS    CLEAR     46  41  81 CALM      30.15S
SILVER BAY     CLEAR     45  45 100 W3        30.15R
GRAND MARAIS     N/A     49  46  90 W5        30.12S
G MARAIS ARPRT CLEAR     43  39  87 SW5       30.13S
$$
MNZ029>031-032-039>041-046>048-054>057-064-221100-
   West Central Minnesota

CITY           SKY/WX    TMP DP  RH WIND       PRES   REMARKS
FERGUS FALLS   CLEAR     46  45  93 SE6       30.22S
WHEATON        CLEAR     45  43  93 SW5       30.24R
MORRIS         CLEAR     45  43  93 S5        30.22S FOG
ALEXANDRIA     CLEAR     49  47  93 SW9       30.24S
ELBOW LAKE     FAIR      45  44  98 S7        30.21F
WADENA         CLEAR     39  37  93 CALM      30.21S
GLENWOOD       CLEAR     43  43 100 SW6       30.24S
APPLETON       CLEAR     43  39  87 CALM      30.23S
BENSON         FOG       43  41  93 CALM      30.24S VSB 1/4
ORTONVILLE     CLEAR     45  41  87 CALM      30.23S
MADISON        CLEAR     46  45  93 SW5       30.24S
WILLMAR        CLOUDY    43  39  87 CALM      30.26R FOG
$$
MNZ033>034-036-042>043-049>051-058-059-221100-
   Central Minnesota

CITY           SKY/WX    TMP DP  RH WIND       PRES   REMARKS
ST CLOUD       PTCLDY    45  42  89 CALM      30.23R FOG
SAUK CENTRE      N/A     40  40 100 CALM      30.24R FOG
PAYNESVILLE    CLEAR     37  37 100 SW3       30.24S FOG
AITKIN         HAZE      39  36  87 CALM      30.20R VSB 1/4
PINE RIVER     MOCLDY    37  37 100 MISG      30.24R FOG
BRAINERD       FOG       40  40 100 S3        30.22R VSB 3/4
STAPLES        CLEAR     39  39 100 CALM      30.22S FOG
LONG PRAIRIE   FAIR      41  41 100 CALM      30.23S FOG
LITTLE FALLS   MOCLDY    39  37  93 CALM      30.23R FOG
LITCHFIELD     CLEAR     48  48 100 W3        30.25R
BUFFALO        CLEAR     46  44  93 CALM      30.24S
MAPLE LAKE     CLEAR     46  46  99 CALM      30.24R FOG
$$
MNZ037-044-045-052-053-221100-
   East Central Minnesota

CITY           SKY/WX    TMP DP  RH WIND       PRES   REMARKS
PRINCETON      CLOUDY    43  43 100 CALM      30.23R VSB 1/4
MORA           FOG       43  43 100 CALM      30.23S VSB 1
CAMBRIDGE      CLEAR     46  39  76 CALM      30.21S HAZE
RUSH CITY      CLEAR     41  40  97 CALM      30.22S FOG
MOOSE LAKE     MOCLDY    45  43  93 SW3       30.18S
HINCKLEY       FOG       41  41 100 CALM      30.21S VSB 3/4
CLOQUET        PTCLDY    46  45  93 W7        30.19R
MCGREGOR         N/A     43  41  93 CALM      30.21R VSB 1
$$
MNZ071>073-080-081-089-090-097-098-221100-
   Southwest Minnesota

CITY           SKY/WX    TMP DP  RH WIND       PRES   REMARKS
MONTEVIDEO     CLEAR     46  43  87 W5        30.25S
GRANITE FALLS  CLEAR     42  42 100 CALM      30.26S
CANBY          CLEAR     51  47  85 SW6       30.26S
MARSHALL       CLEAR     46  43  87 SW5       30.24S
REDWOOD FALLS  CLEAR     45  43  93 CALM      30.25R
OLIVIA         FOG       41  39  93 CALM      30.24S VSB 3/4
PIPESTONE      CLEAR     43  43 100 SW5       30.27S
WINDOM           N/A     41  41 100 CALM      30.27R FOG
WORTHINGTON    CLEAR     43  43 100 SW3       30.29R
JACKSON        CLEAR     43  41  93 CALM      30.27S
TRACY          CLEAR     48  46  93 CALM      30.26S
SLAYTON        CLEAR     45  43  94 CALM      30.28R
$$
MNZ065>067-074>077-082>085-091>093-221100-
   South Central Minnesota

CITY           SKY/WX    TMP DP  RH WIND       PRES   REMARKS
MANKATO        CLEAR     46  41  81 W5        30.25S
NEW ULM        FOG       43  43 100 CALM      30.25S VSB 1
ST JAMES       CLEAR     43  41  93 SW3       30.27S
FAIRMONT       CLEAR     45  39  81 CALM      30.26S
GLENCOE        CLEAR     47  44  91 CALM      30.23F
FARIBAULT      PTCLDY    45  39  81 CALM      30.25R HAZE
OWATONNA       CLEAR     43  41  93 CALM      30.25R FOG
WASECA         FOG       41  37  87 CALM      30.26R VSB 1/4
ALBERT LEA       N/A     46  46 100 CALM      30.25S FOG
$$
MNZ078>079-086>088-094>096-221100-
   Southeast Minnesota

CITY           SKY/WX    TMP DP  RH WIND       PRES   REMARKS
ROCHESTER      CLEAR     45  44  97 W6        30.25S
RED WING       CLEAR     43  43 100 CALM      30.23R FOG
STANTON        CLEAR     44  42  94 CALM      30.23R
DODGE CENTER   FOG       43  43 100 CALM      30.24S VSB 3/4
WINONA         CLEAR     45  43  93 CALM      30.24S
AUSTIN         FOG       43  41  93 CALM      30.25S VSB 1
PRESTON        CLEAR     45  45 100 CALM      30.25S
$$
ABBREVIATIONS USED IN REMARKS
   TC - TEMPERATURES IN CELSIUS
  WCI - WIND CHILL INDEX
   HX - HEAT INDEX
  VSB - VISIBILITY
$$


USA.gov is the U.S. government's official web portal to all federal, state and local government web resources and services.